Lima, OH

10:18 AM EDT on May 26, 2017 (GMT -0400)
Lima Allen County

Weather History for KAOH - September, 2012

Change the Weather History Date:

Thursday, September 27, 2012

  Actual Average (KFDY) Record (KFDY)
Temperature  
Mean Temperature 55 °F -  
Max Temperature 62 °F 69 °F 88 °F (1973)
Min Temperature 48 °F 48 °F 36 °F (1991)
Degree Days  
Heating Degree Days 10    
Growing Degree Days 5 (Base 50)    
Moisture  
Dew Point 56 °F    
Average Humidity 89    
Maximum Humidity 94    
Minimum Humidity 68    
Precipitation  
Precipitation 0.70 in - - ()
Sea Level Pressure  
Sea Level Pressure 30.13 in    
Wind  
Wind Speed 5 mph (ENE)    
Max Wind Speed 13 mph    
Max Gust Speed -    
Visibility 4 miles    
Events Fog , Rain    
Averages and records for this station are not official NWS values.
T = Trace of Precipitation, MM = Missing Value Source: NWS Daily Summary

Daily Weather History Graph

Daily Weather History Graph

Search for Another Location

Airport or City:

Trip Planner

Search our weather history database for the weather conditions in past years. The results will help you decide how hot, cold, wet, or windy it might be!

Date:

Astronomy

Sep. 27, 2012 Rise Set
Actual Time 7:29 AM EDT 7:24 PM EDT
Civil Twilight 7:01 AM EDT 7:51 PM EDT
Nautical Twilight 6:29 AM EDT 8:23 PM EDT
Astronomical Twilight 5:57 AM EDT 8:55 PM EDT
Moon 5:55 PM EDT (9/27) 4:56 AM EDT (9/27)
Length of Visible Light 12h 49m
Length of Day
11h 54m
Waxing Gibbous, 94% of the Moon is Illuminated
Sep 27
Waxing Gibbous
Sep 29
Full
Oct 8
Last Quarter
Oct 15
New
Oct 21
First Quarter

Hourly Weather History & Observations

Time (EDT) Temp. Dew Point Humidity Pressure Visibility Wind Dir Wind Speed Gust Speed Precip Events Conditions
12:04 AM 62.6 °F 60.8 °F 94% 30.12 in 3.0 mi SW 3.5 mph - N/A   Overcast
12:25 AM 62.6 °F 60.8 °F 94% 30.11 in 3.0 mi Calm Calm - N/A   Overcast
12:32 AM 60.8 °F 59.0 °F 94% 30.11 in 3.0 mi Calm Calm - N/A   Overcast
12:53 AM 61.0 °F 59.0 °F 93% 30.10 in 2.0 mi Calm Calm - N/A   Mostly Cloudy
1:02 AM 60.8 °F 57.2 °F 88% 30.11 in 1.5 mi Calm Calm - N/A   Overcast
1:11 AM 60.8 °F 59.0 °F 94% 30.11 in 1.8 mi Calm Calm - N/A   Overcast
1:27 AM 62.6 °F 59.0 °F 88% 30.11 in 2.0 mi NNE 5.8 mph - N/A   Overcast
1:43 AM 62.6 °F 59.0 °F 88% 30.11 in 2.0 mi Calm Calm - N/A   Scattered Clouds
1:49 AM 60.8 °F 59.0 °F 94% 30.11 in 0.8 mi SE 3.5 mph - N/A   Scattered Clouds
1:51 AM 60.8 °F 57.2 °F 88% 30.12 in 0.5 mi Calm Calm - N/A Fog Fog
1:53 AM 60.1 °F 57.9 °F 93% 30.11 in 0.5 mi Calm Calm - N/A Fog Fog
2:00 AM 60.8 °F 57.2 °F 88% 30.12 in 1.0 mi Calm Calm - N/A   Mostly Cloudy
2:18 AM 62.6 °F 59.0 °F 88% 30.12 in 1.5 mi Calm Calm - N/A   Overcast
2:50 AM 62.6 °F 60.8 °F 94% 30.11 in 0.8 mi ENE 4.6 mph - N/A   Mist
2:53 AM 62.1 °F 60.1 °F 93% 30.10 in 0.8 mi ENE 3.5 mph - N/A   Mist
3:11 AM 62.6 °F 60.8 °F 94% 30.11 in 1.0 mi East 4.6 mph - N/A   Overcast
3:32 AM 62.6 °F 60.8 °F 94% 30.11 in 2.0 mi ENE 6.9 mph - N/A   Overcast
3:41 AM 62.6 °F 60.8 °F 94% 30.11 in 1.5 mi ENE 8.1 mph - N/A   Overcast
3:53 AM 62.1 °F 60.1 °F 93% 30.11 in 1.8 mi ENE 9.2 mph - N/A   Overcast
4:07 AM 62.6 °F 59.0 °F 88% 30.11 in 0.5 mi ENE 9.2 mph - N/A Fog Fog
4:41 AM 60.8 °F 59.0 °F 94% 30.11 in 0.8 mi ENE 8.1 mph - N/A   Mist
4:48 AM 60.8 °F 59.0 °F 94% 30.11 in 1.0 mi ENE 6.9 mph - N/A   Overcast
4:53 AM 61.0 °F 59.0 °F 93% 30.11 in 1.0 mi ENE 8.1 mph - N/A   Overcast
5:07 AM 60.8 °F 59.0 °F 94% 30.12 in 0.8 mi ENE 6.9 mph - N/A   Mist
5:18 AM 60.8 °F 59.0 °F 94% 30.12 in 0.5 mi ENE 5.8 mph - N/A Fog Fog
5:41 AM 60.8 °F 59.0 °F 94% 30.12 in 1.0 mi NE 5.8 mph - 0.01 in Rain Light Rain
6:04 AM 60.8 °F 57.2 °F 88% 30.12 in 2.5 mi NE 9.2 mph - 0.00 in Rain Light Rain
6:15 AM 60.8 °F 57.2 °F 88% 30.12 in 4.0 mi ENE 10.4 mph - 0.00 in   Overcast
6:24 AM 59.0 °F 57.2 °F 94% 30.12 in 5.0 mi NE 11.5 mph - 0.00 in   Overcast
6:48 AM 57.2 °F 55.4 °F 94% 30.13 in 9.0 mi ENE 9.2 mph - 0.00 in   Overcast
6:53 AM 57.9 °F 55.9 °F 93% 30.13 in 10.0 mi ENE 6.9 mph - 0.00 in   Overcast
7:37 AM 57.2 °F 55.4 °F 94% 30.13 in 6.0 mi East 12.7 mph - 0.03 in Rain Light Rain
7:50 AM 57.2 °F 55.4 °F 94% 30.14 in 3.0 mi ENE 9.2 mph - 0.07 in Rain Rain
7:53 AM 57.9 °F 55.0 °F 90% 30.14 in 3.0 mi ENE 6.9 mph - 0.08 in Rain Rain
8:06 AM 57.2 °F 55.4 °F 94% 30.14 in 2.5 mi NE 5.8 mph - 0.03 in Rain Rain
8:17 AM 57.2 °F 55.4 °F 94% 30.14 in 1.8 mi ENE 9.2 mph - 0.09 in Rain Rain
8:53 AM 57.9 °F 55.0 °F 90% 30.14 in 3.0 mi ENE 10.4 mph - 0.21 in Rain Light Rain
9:26 AM 57.2 °F 55.4 °F 94% 30.15 in 3.0 mi ENE 5.8 mph - 0.02 in Rain Light Rain
9:38 AM 57.2 °F 55.4 °F 94% 30.15 in 2.5 mi NE 6.9 mph - 0.03 in Rain Light Rain
9:53 AM 57.9 °F 55.0 °F 90% 30.15 in 1.5 mi NE 5.8 mph - 0.06 in Rain Light Rain
10:53 AM 57.9 °F 55.9 °F 93% 30.16 in 1.8 mi NE 8.1 mph - 0.12 in Rain Light Rain
11:10 AM 59.0 °F 55.4 °F 88% 30.16 in 2.0 mi NE 8.1 mph - 0.02 in Rain Light Rain
11:35 AM 59.0 °F 55.4 °F 88% 30.16 in 3.0 mi NE 6.9 mph - 0.04 in Rain Light Rain
11:53 AM 59.0 °F 55.9 °F 90% 30.16 in 4.0 mi NE 8.1 mph - 0.05 in Rain Light Rain
12:06 PM 59.0 °F 55.4 °F 88% 30.16 in 2.0 mi NE 8.1 mph - 0.02 in Rain Rain
12:53 PM 59.0 °F 55.9 °F 90% 30.15 in 2.5 mi ENE 8.1 mph - 0.18 in Rain Rain
1:01 PM 59.0 °F 55.4 °F 88% 30.16 in 3.0 mi ENE 6.9 mph - 0.02 in Rain Rain
2:53 PM 59.0 °F 55.9 °F 90% 30.14 in 8.0 mi NE 10.4 mph - 0.00 in   Overcast
3:53 PM 60.1 °F 55.0 °F 83% 30.13 in 10.0 mi ENE 9.2 mph - N/A   Overcast
4:25 PM 60.8 °F 53.6 °F 77% 30.14 in 10.0 mi East 10.4 mph - N/A   Overcast
4:53 PM 62.1 °F 54.0 °F 75% 30.14 in 10.0 mi NE 10.4 mph - N/A   Overcast
5:07 PM 62.6 °F 53.6 °F 72% 30.15 in 10.0 mi ENE 9.2 mph - N/A   Mostly Cloudy
5:53 PM 61.0 °F 51.1 °F 70% 30.16 in 10.0 mi NE 5.8 mph - N/A   Mostly Cloudy
6:19 PM 60.8 °F 50.0 °F 68% 30.16 in 10.0 mi ENE 5.8 mph - N/A   Scattered Clouds
6:53 PM 59.0 °F 50.0 °F 72% 30.15 in 10.0 mi ENE 6.9 mph - N/A   Clear
7:53 PM 54.0 °F 48.0 °F 80% 30.14 in 10.0 mi ESE 3.5 mph - N/A   Clear
8:53 PM 52.0 °F 46.9 °F 83% 30.16 in 10.0 mi Calm Calm - N/A   Clear
9:53 PM 50.0 °F 46.0 °F 86% 30.17 in 10.0 mi Calm Calm - N/A   Clear
10:53 PM 48.0 °F 45.0 °F 89% 30.16 in 10.0 mi East 3.5 mph - N/A   Clear
11:53 PM 50.0 °F 46.0 °F 86% 30.17 in 9.0 mi SSE 3.5 mph - N/A   Clear